Location: Moscow Pond
(43.6842°N, 73.2366°W)
Time: 22:18:38
(UTC+00:00)

CZ-4 R/B - Pass Details

Date: 08 November 2025
Orbit: 675 x 744 km, 98.7° (Epoch: 04 December)

Event Time Altitude Azimuth Distance (km) Brightness Sun altitude
Rises 10:27:17 0° 8° (N) 3,170 7.2 -13.1°
Reaches altitude 10° 10:29:39 10° 3° (N) 2,235 6.3 -12.7°
Maximum altitude 10:34:21 48° 290° (WNW) 937 4.1 -11.9°
Drops below altitude 10° 10:38:57 10° 217° (SW) 2,179 6.1 -11.1°
Sets 10:41:14 0° 211° (SSW) 3,082 6.9 -10.7°
